Minneapolis Flying Cloud, MN

3:18 AM CDT on July 25, 2017 (GMT -0500)
Flying Cloud

Weather History for KFCM - February, 2014

Change the Weather History Date:

Thursday, February 13, 2014

  Actual Average Record
Temperature  
Mean Temperature 17 °F -  
Max Temperature 28 °F 27 °F 48 °F (2017)
Min Temperature 3 °F 13 °F -9 °F (2016)
Degree Days  
Heating Degree Days 48    
Moisture  
Dew Point 12 °F    
Average Humidity 78    
Maximum Humidity 93    
Minimum Humidity 67    
Precipitation  
Precipitation 0.00 in - - ()
Sea Level Pressure  
Sea Level Pressure 29.61 in    
Wind  
Wind Speed 14 mph (SW)    
Max Wind Speed 26 mph    
Max Gust Speed 33 mph    
Visibility 6 miles    
Events Snow    
Averages and records for this station are not official NWS values.
T = Trace of Precipitation, MM = Missing Value Source: NWS Daily Summary

Daily Weather History Graph

Daily Weather History Graph

Search for Another Location

Airport or City:

Trip Planner

Search our weather history database for the weather conditions in past years. The results will help you decide how hot, cold, wet, or windy it might be!

Date:

Astronomy

Feb. 13, 2014 Rise Set
Actual Time 7:17 AM CST 5:39 PM CST
Civil Twilight 6:47 AM CST 6:09 PM CST
Nautical Twilight 6:12 AM CST 6:43 PM CST
Astronomical Twilight 5:38 AM CST 7:17 PM CST
Moon 4:48 PM CST (2/13) 6:11 AM CST (2/13)
Length of Visible Light 11h 22m
Length of Day
10h 22m
Waxing Gibbous, 99% of the Moon is Illuminated
Feb 13
Waxing Gibbous
Feb 14
Full
Feb 22
Last Quarter
Mar 1
New
Mar 8
First Quarter

Hourly Weather History & Observations

Time (CST) Temp. Windchill Dew Point Humidity Pressure Visibility Wind Dir Wind Speed Gust Speed Precip Events Conditions
12:37 AM 17.6 °F 3.7 °F 14.0 °F 86% 29.75 in 5.0 mi SSE 13.8 mph - N/A   Overcast
12:53 AM 18.0 °F 4.2 °F 14.0 °F 84% 29.77 in 5.0 mi SSE 13.8 mph - N/A   Overcast
1:46 AM 15.8 °F 1.4 °F 12.2 °F 86% 29.70 in 5.0 mi SSE 13.8 mph - N/A   Overcast
1:53 AM 16.0 °F 2.9 °F 12.0 °F 84% 29.74 in 5.0 mi SSE 11.5 mph - N/A   Overcast
2:18 AM 15.8 °F 0.9 °F 12.2 °F 86% 29.65 in 1.8 mi SSE 15.0 mph - 0.00 in Snow Light Snow
2:34 AM 17.6 °F 4.3 °F 12.2 °F 79% 29.64 in 3.0 mi SSE 12.7 mph - 0.00 in Snow Light Snow
2:53 AM 17.1 °F 3.6 °F 14.0 °F 88% 29.68 in 4.0 mi SSE 12.7 mph - 0.00 in   Overcast
3:26 AM 17.6 °F 2.2 °F 15.8 °F 93% 29.56 in 1.8 mi SE 17.3 mph - 0.00 in Snow Light Snow
3:40 AM 19.4 °F 5.0 °F 15.8 °F 86% 29.54 in 2.0 mi SE 16.1 mph - 0.00 in Snow Light Snow
3:51 AM 19.4 °F 7.2 °F 15.8 °F 86% 29.55 in 4.0 mi SSE 11.5 mph - 0.00 in   Overcast
3:53 AM 19.0 °F 6.1 °F 16.0 °F 88% 29.59 in 4.0 mi South 12.7 mph - 0.00 in   Overcast
4:44 AM 19.4 °F 6.0 °F 15.8 °F 86% 29.51 in 5.0 mi South 13.8 mph - N/A   Haze
4:53 AM 19.9 °F 6.7 °F 16.0 °F 85% 29.56 in 5.0 mi South 13.8 mph - N/A   Overcast
5:43 AM 19.4 °F 8.6 °F 15.8 °F 86% 29.48 in 5.0 mi SSE 9.2 mph - N/A   Overcast
5:53 AM 19.9 °F 7.9 °F 16.0 °F 85% 29.52 in 5.0 mi South 11.5 mph - N/A   Overcast
6:32 AM 24.8 °F 11.9 °F 19.4 °F 80% 29.45 in 6.0 mi South 16.1 mph - N/A   Haze
6:53 AM 24.1 °F 12.0 °F 19.0 °F 81% 29.48 in 6.0 mi South 13.8 mph - N/A   Haze
7:53 AM 26.1 °F 15.0 °F 21.0 °F 81% 29.47 in 5.0 mi SSW 12.7 mph - N/A   Haze
8:53 AM 28.9 °F 19.2 °F 23.0 °F 78% 29.46 in 6.0 mi SW 11.5 mph - N/A   Haze
9:16 AM 28.4 °F 19.1 °F 23.0 °F 80% 29.43 in 7.0 mi WSW 10.4 mph - N/A   Overcast
9:53 AM 27.0 °F 14.3 °F 18.0 °F 69% 29.49 in 10.0 mi West 17.3 mph 29.9 mph 0.00 in   Mostly Cloudy
10:53 AM 21.9 °F 7.3 °F 15.1 °F 75% 29.53 in 7.0 mi West 18.4 mph 26.5 mph N/A   Overcast
11:53 AM 19.9 °F 2.2 °F 12.0 °F 71% 29.54 in 5.0 mi West 26.5 mph 33.4 mph N/A   Haze
12:19 PM 19.4 °F 4.1 °F 12.2 °F 74% 29.50 in 2.5 mi West 18.4 mph 26.5 mph 0.00 in Snow Light Snow
12:26 PM 19.4 °F 3.6 °F 12.2 °F 74% 29.50 in 3.0 mi West 19.6 mph 29.9 mph 0.00 in Snow Light Snow
12:53 PM 19.0 °F 3.6 °F 10.9 °F 71% 29.55 in 3.0 mi WNW 18.4 mph 28.8 mph 0.00 in   Haze
1:53 PM 18.0 °F 0.6 °F 10.0 °F 71% 29.58 in 7.0 mi WNW 23.0 mph 33.4 mph N/A   Overcast
2:53 PM 18.0 °F 0.9 °F 9.0 °F 68% 29.61 in 9.0 mi WNW 21.9 mph 31.1 mph 0.00 in   Overcast
3:53 PM 16.0 °F 0.1 °F 8.1 °F 71% 29.65 in 8.0 mi West 17.3 mph 28.8 mph N/A   Overcast
4:25 PM 15.8 °F -0.2 °F 6.8 °F 68% 29.62 in 10.0 mi West 17.3 mph - N/A   Scattered Clouds
4:53 PM 14.0 °F -2.5 °F 5.0 °F 67% 29.68 in 10.0 mi WNW 17.3 mph 23.0 mph N/A   Clear
5:53 PM 12.0 °F -3.4 °F 3.0 °F 67% 29.72 in 10.0 mi WNW 13.8 mph 20.7 mph N/A   Clear
6:53 PM 10.0 °F -5.2 °F 1.9 °F 70% 29.74 in 10.0 mi WNW 12.7 mph - N/A   Clear
7:53 PM 9.0 °F -7.3 °F 1.0 °F 70% 29.74 in 10.0 mi WNW 13.8 mph - N/A   Clear
8:53 PM 8.1 °F -7.7 °F -0.0 °F 70% 29.76 in 10.0 mi NW 12.7 mph - N/A   Clear
9:53 PM 6.1 °F -10.2 °F -0.9 °F 73% 29.77 in 10.0 mi WNW 12.7 mph - N/A   Clear
10:53 PM 6.1 °F -7.8 °F -2.0 °F 69% 29.77 in 10.0 mi NW 9.2 mph - N/A   Clear
11:53 PM 3.9 °F -8.2 °F -2.9 °F 73% 29.79 in 10.0 mi WNW 6.9 mph - N/A   Clear